| time (UTC) | temp C | wind direction | speed KPH | gust KPH | rain 1hr cm | rain 24hr cm | rain mn cm | humidity % | barometer mb |
| 20260509103552 | 16 | 0 | 1.6 | 6.4 | 0.00 | 0.00 | 0.00 | 39 | 1009.1 |
| 20260509103053 | 16 | 222 | 3.2 | 4.8 | 0.00 | 0.00 | 0.00 | 40 | 1009.2 |
| 20260509102552 | 16 | 200 | 0.0 | 4.8 | 0.00 | 0.00 | 0.00 | 41 | 1009.0 |
| 20260509102054 | 16 | 0 | 0.0 | 0.0 | 0.00 | 0.00 | 0.00 | 41 | 1009.1 |
| 20260509101553 | 16 | 0 | 0.0 | 4.8 | 0.00 | 0.00 | 0.00 | 44 | 1009.3 |
| 20260509101052 | 15 | 0 | 0.0 | 4.8 | 0.00 | 0.00 | 0.00 | 45 | 1009.4 |
| 20260509100553 | 15 | 248 | 1.6 | 4.8 | 0.00 | 0.00 | 0.00 | 46 | 1009.6 |
| 20260509100051 | 15 | 0 | 0.0 | 4.8 | 0.00 | 0.00 | 0.00 | 47 | 1009.6 |
| 20260509095553 | 15 | 0 | 0.0 | 4.8 | 0.00 | 0.00 | 0.00 | 52 | 1009.3 |
| 20260509095053 | 15 | 214 | 4.8 | 4.8 | 0.00 | 0.00 | 0.00 | 52 | 1009.3 |
| 20260509094553 | 16 | 213 | 0.0 | 4.8 | 0.00 | 0.00 | 0.00 | 52 | 1009.2 |
| 20260509094053 | 16 | 0 | 3.2 | 4.8 | 0.00 | 0.00 | 0.00 | 52 | 1009.0 |
| 20260509093556 | 16 | 202 | 3.2 | 4.8 | 0.00 | 0.00 | 0.00 | 54 | 1008.8 |
| 20260509093055 | 16 | 198 | 3.2 | 4.8 | 0.00 | 0.00 | 0.00 | 52 | 1008.7 |
| 20260509092552 | 16 | 181 | 1.6 | 4.8 | 0.00 | 0.00 | 0.00 | 53 | 1008.6 |
| 20260509092056 | 16 | 0 | 0.0 | 0.0 | 0.00 | 0.00 | 0.00 | 54 | 1008.5 |
| 20260509091606 | 16 | 0 | 0.0 | 0.0 | 0.00 | 0.00 | 0.00 | 54 | 1008.5 |
| 20260509091055 | 16 | 0 | 0.0 | 4.8 | 0.00 | 0.00 | 0.00 | 54 | 1008.6 |
| 20260509090556 | 16 | 0 | 1.6 | 4.8 | 0.00 | 0.00 | 0.00 | 56 | 1008.7 |
| 20260509090056 | 16 | 155 | 0.0 | 4.8 | 0.00 | 0.00 | 0.00 | 57 | 1008.8 |
| 20260509085556 | 16 | 0 | 0.0 | 8.0 | 0.00 | 0.00 | 0.00 | 58 | 1008.9 |
| 20260509085057 | 16 | 0 | 4.8 | 8.0 | 0.00 | 0.00 | 0.00 | 57 | 1008.8 |
| 20260509084553 | 16 | 188 | 3.2 | 6.4 | 0.00 | 0.00 | 0.00 | 57 | 1008.8 |
| 20260509084056 | 16 | 172 | 3.2 | 6.4 | 0.00 | 0.00 | 0.00 | 60 | 1008.8 |
| 20260509083556 | 16 | 161 | 4.8 | 6.4 | 0.00 | 0.00 | 0.00 | 61 | 1008.9 |
| 20260509083054 | 16 | 175 | 4.8 | 6.4 | 0.00 | 0.00 | 0.00 | 62 | 1009.0 |
| 20260509082555 | 16 | 169 | 3.2 | 9.7 | 0.00 | 0.00 | 0.00 | 63 | 1008.9 |
| 20260509082058 | 16 | 160 | 4.8 | 11.3 | 0.00 | 0.00 | 0.00 | 63 | 1008.7 |
| 20260509081555 | 15 | 181 | 8.0 | 11.3 | 0.00 | 0.00 | 0.00 | 63 | 1008.6 |
| 20260509081053 | 15 | 154 | 6.4 | 11.3 | 0.00 | 0.00 | 0.00 | 65 | 1008.8 |
| 20260509080555 | 15 | 169 | 8.0 | 11.3 | 0.00 | 0.00 | 0.00 | 66 | 1008.9 |
| 20260509080059 | 15 | 169 | 9.7 | 11.3 | 0.00 | 0.00 | 0.00 | 65 | 1008.9 |
| 20260509075555 | 15 | 174 | 8.0 | 9.7 | 0.00 | 0.00 | 0.00 | 66 | 1008.9 |
| 20260509075052 | 15 | 168 | 6.4 | 9.7 | 0.00 | 0.00 | 0.00 | 66 | 1008.8 |
| 20260509074556 | 15 | 189 | 6.4 | 11.3 | 0.00 | 0.00 | 0.00 | 67 | 1008.8 |
| 20260509074052 | 15 | 196 | 8.0 | 12.9 | 0.00 | 0.00 | 0.00 | 68 | 1008.8 |
| 20260509073556 | 15 | 169 | 9.7 | 12.9 | 0.00 | 0.00 | 0.00 | 68 | 1009.1 |
| 20260509073053 | 15 | 159 | 4.8 | 11.3 | 0.00 | 0.00 | 0.00 | 70 | 1009.2 |
| 20260509072555 | 15 | 174 | 0.0 | 11.3 | 0.00 | 0.00 | 0.00 | 71 | 1009.3 |
| 20260509072056 | 15 | 0 | 0.0 | 0.0 | 0.00 | 0.00 | 0.00 | 71 | 1009.3 |
| 20260509071559 | 15 | 0 | 0.0 | 0.0 | 0.00 | 0.00 | 0.00 | 72 | 1009.5 |
| 20260509071053 | 15 | 0 | 0.0 | 0.0 | 0.00 | 0.00 | 0.00 | 72 | 1009.5 |
| 20260509070553 | 15 | 0 | 0.0 | 0.0 | 0.00 | 0.00 | 0.00 | 73 | 1009.5 |
| 20260509070059 | 15 | 0 | 0.0 | 0.0 | 0.00 | 0.00 | 0.00 | 73 | 1009.7 |
| 20260509065555 | 15 | 0 | 0.0 | 0.0 | 0.00 | 0.00 | 0.00 | 72 | 1009.9 |
| 20260509065056 | 15 | 0 | 0.0 | 0.0 | 0.00 | 0.00 | 0.00 | 71 | 1010.0 |
| 20260509064555 | 15 | 0 | 0.0 | 0.0 | 0.00 | 0.00 | 0.00 | 71 | 1009.9 |
| 20260509064055 | 15 | 0 | 0.0 | 0.0 | 0.00 | 0.00 | 0.00 | 72 | 1009.9 |
| 20260509063556 | 15 | 0 | 0.0 | 0.0 | 0.00 | 0.00 | 0.00 | 74 | 1009.8 |
| 20260509063056 | 15 | 0 | 0.0 | 0.0 | 0.00 | 0.00 | 0.00 | 74 | 1010.0 |
| 20260509062557 | 15 | 0 | 0.0 | 9.7 | 0.00 | 0.00 | 0.00 | 74 | 1010.1 |
| 20260509062056 | 15 | 0 | 0.0 | 9.7 | 0.00 | 0.00 | 0.00 | 74 | 1010.4 |
| 20260509061613 | 15 | 178 | 3.2 | 9.7 | 0.00 | 0.00 | 0.00 | 78 | 1010.7 |
| 20260509061056 | 15 | 0 | 0.0 | 0.0 | 0.00 | 0.00 | 0.00 | 80 | 1010.7 |
| 20260509060553 | 15 | 0 | 0.0 | 0.0 | 0.00 | 0.00 | 0.00 | 81 | 1010.8 |
| 20260509060118 | 15 | 0 | 0.0 | 0.0 | 0.00 | 0.00 | 0.00 | 81 | 1010.7 |
| 20260509055556 | 15 | 0 | 0.0 | 0.0 | 0.00 | 0.00 | 0.00 | 81 | 1010.6 |
| 20260509055056 | 15 | 0 | 0.0 | 0.0 | 0.00 | 0.00 | 0.00 | 82 | 1010.7 |
| 20260509054602 | 16 | 0 | 0.0 | 0.0 | 0.00 | 0.00 | 0.00 | 82 | 1010.7 |
| 20260509054056 | 16 | 0 | 0.0 | 0.0 | 0.00 | 0.00 | 0.00 | 82 | 1010.6 |
| 20260509053557 | 16 | 0 | 0.0 | 0.0 | 0.00 | 0.00 | 0.00 | 82 | 1010.8 |
| 20260509053056 | 16 | 0 | 0.0 | 0.0 | 0.00 | 0.00 | 0.00 | 83 | 1010.9 |
| 20260509052557 | 16 | 0 | 0.0 | 0.0 | 0.00 | 0.00 | 0.00 | 83 | 1010.9 |
| 20260509052057 | 16 | 0 | 0.0 | 0.0 | 0.00 | 0.00 | 0.00 | 82 | 1011.0 |
| 20260509051559 | 16 | 0 | 0.0 | 0.0 | 0.00 | 0.00 | 0.00 | 83 | 1011.0 |
| 20260509051056 | 16 | 0 | 0.0 | 0.0 | 0.00 | 0.00 | 0.00 | 82 | 1011.0 |
| 20260509050556 | 16 | 0 | 0.0 | 0.0 | 0.00 | 0.00 | 0.00 | 82 | 1011.3 |
| 20260509050127 | 16 | 0 | 0.0 | 0.0 | 0.00 | 0.00 | 0.00 | 82 | 1011.4 |
| 20260509045557 | 16 | 0 | 0.0 | 0.0 | 0.00 | 0.00 | 0.00 | 82 | 1011.4 |
| 20260509045057 | 16 | 0 | 0.0 | 0.0 | 0.00 | 0.00 | 0.00 | 82 | 1011.2 |
| 20260509044601 | 16 | 0 | 0.0 | 0.0 | 0.00 | 0.00 | 0.00 | 83 | 1011.1 |
| 20260509044056 | 16 | 0 | 0.0 | 0.0 | 0.00 | 0.00 | 0.00 | 83 | 1010.9 |
| 20260509043556 | 16 | 0 | 0.0 | 0.0 | 0.00 | 0.00 | 0.00 | 83 | 1010.6 |
| 20260509043058 | 16 | 0 | 0.0 | 0.0 | 0.00 | 0.00 | 0.00 | 83 | 1010.7 |
| 20260509042556 | 16 | 0 | 0.0 | 0.0 | 0.00 | 0.00 | 0.00 | 83 | 1010.8 |
| 20260509042056 | 16 | 0 | 0.0 | 0.0 | 0.00 | 0.00 | 0.00 | 83 | 1010.8 |
| 20260509041555 | 16 | 0 | 0.0 | 0.0 | 0.00 | 0.00 | 0.00 | 82 | 1011.1 |
| 20260509041056 | 16 | 0 | 0.0 | 0.0 | 0.00 | 0.00 | 0.00 | 82 | 1011.2 |
| 20260509040555 | 16 | 0 | 0.0 | 0.0 | 0.00 | 0.00 | 0.00 | 82 | 1011.5 |
| 20260509040057 | 16 | 0 | 0.0 | 0.0 | 0.00 | 0.00 | 0.00 | 82 | 1011.4 |
| 20260509035558 | 16 | 0 | 0.0 | 0.0 | 0.00 | 0.00 | 0.00 | 82 | 1011.4 |
| 20260509035052 | 17 | 0 | 0.0 | 0.0 | 0.00 | 0.00 | 0.00 | 82 | 1011.3 |
| 20260509034553 | 17 | 0 | 0.0 | 0.0 | 0.00 | 0.00 | 0.00 | 82 | 1011.2 |
| 20260509034053 | 17 | 0 | 0.0 | 0.0 | 0.00 | 0.00 | 0.00 | 81 | 1010.8 |
| 20260509033556 | 17 | 0 | 0.0 | 0.0 | 0.00 | 0.00 | 0.00 | 81 | 1010.6 |
| 20260509033056 | 17 | 0 | 0.0 | 0.0 | 0.00 | 0.00 | 0.00 | 82 | 1010.6 |
| 20260509032556 | 16 | 0 | 0.0 | 0.0 | 0.00 | 0.00 | 0.00 | 82 | 1010.6 |
| 20260509032058 | 17 | 0 | 0.0 | 0.0 | 0.00 | 0.00 | 0.00 | 82 | 1010.5 |
| 20260509031557 | 17 | 0 | 0.0 | 0.0 | 0.00 | 0.00 | 0.00 | 82 | 1010.5 |
| 20260509031056 | 17 | 0 | 0.0 | 0.0 | 0.00 | 0.00 | 0.00 | 81 | 1010.4 |
| 20260509030556 | 17 | 0 | 0.0 | 0.0 | 0.00 | 0.00 | 0.00 | 81 | 1010.6 |
| 20260509030054 | 17 | 0 | 0.0 | 0.0 | 0.00 | 0.00 | 0.00 | 81 | 1010.6 |
| 20260509025553 | 17 | 0 | 0.0 | 0.0 | 0.00 | 0.00 | 0.00 | 81 | 1010.8 |
| 20260509025055 | 17 | 0 | 0.0 | 0.0 | 0.00 | 0.00 | 0.00 | 80 | 1010.8 |
| 20260509024553 | 17 | 0 | 0.0 | 0.0 | 0.00 | 0.00 | 0.00 | 80 | 1010.8 |
| 20260509024052 | 17 | 0 | 0.0 | 0.0 | 0.00 | 0.00 | 0.00 | 80 | 1010.6 |
| 20260509023559 | 17 | 0 | 0.0 | 0.0 | 0.00 | 0.00 | 0.00 | 80 | 1010.3 |
| 20260509023102 | 17 | 0 | 0.0 | 0.0 | 0.00 | 0.00 | 0.00 | 79 | 1010.3 |
| 20260509022556 | 17 | 0 | 0.0 | 0.0 | 0.00 | 0.00 | 0.00 | 78 | 1010.3 |
| 20260509022056 | 17 | 0 | 0.0 | 0.0 | 0.00 | 0.00 | 0.00 | 78 | 1010.3 |
| 20260509021556 | 18 | 0 | 0.0 | 0.0 | 0.00 | 0.00 | 0.00 | 77 | 1010.4 |
| 20260509021057 | 18 | 0 | 0.0 | 0.0 | 0.00 | 0.00 | 0.00 | 77 | 1010.4 |
| 20260509020555 | 18 | 0 | 0.0 | 0.0 | 0.00 | 0.00 | 0.00 | 77 | 1010.5 |
| 20260509020058 | 18 | 0 | 0.0 | 0.0 | 0.00 | 0.00 | 0.00 | 76 | 1010.3 |
| 20260509015556 | 18 | 0 | 0.0 | 0.0 | 0.00 | 0.00 | 0.00 | 75 | 1010.4 |
| 20260509015056 | 18 | 0 | 0.0 | 0.0 | 0.00 | 0.00 | 0.00 | 75 | 1010.4 |
| 20260509014554 | 18 | 0 | 0.0 | 9.7 | 0.00 | 0.00 | 0.00 | 75 | 1010.3 |
| 20260509014056 | 18 | 0 | 0.0 | 11.3 | 0.00 | 0.00 | 0.00 | 74 | 1010.2 |
| 20260509013552 | 18 | 0 | 1.6 | 11.3 | 0.00 | 0.00 | 0.00 | 74 | 1010.2 |
| 20260509013100 | 19 | 0 | 0.0 | 9.7 | 0.00 | 0.00 | 0.00 | 73 | 1010.3 |
| 20260509012556 | 19 | 0 | 0.0 | 12.9 | 0.00 | 0.00 | 0.00 | 73 | 1010.3 |
| 20260509012057 | 19 | 0 | 0.0 | 12.9 | 0.00 | 0.00 | 0.00 | 72 | 1010.2 |
| 20260509011556 | 19 | 0 | 0.0 | 12.9 | 0.00 | 0.00 | 0.00 | 71 | 1010.2 |
| 20260509011056 | 20 | 0 | 0.0 | 16.1 | 0.00 | 0.00 | 0.00 | 71 | 1010.2 |
| 20260509010556 | 20 | 171 | 4.8 | 16.1 | 0.00 | 0.00 | 0.00 | 70 | 1010.3 |
| 20260509010057 | 20 | 0 | 0.0 | 19.3 | 0.00 | 0.00 | 0.00 | 70 | 1010.1 |
| 20260509005556 | 20 | 148 | 6.4 | 19.3 | 0.00 | 0.00 | 0.00 | 69 | 1010.0 |
| 20260509005055 | 20 | 150 | 11.3 | 19.3 | 0.00 | 0.00 | 0.00 | 69 | 1010.0 |
| 20260509004555 | 20 | 0 | 4.8 | 17.7 | 0.00 | 0.00 | 0.00 | 69 | 1010.2 |
| 20260509004055 | 20 | 153 | 4.8 | 20.9 | 0.00 | 0.00 | 0.00 | 69 | 1010.1 |
| 20260509003553 | 20 | 166 | 8.0 | 20.9 | 0.00 | 0.00 | 0.00 | 68 | 1010.1 |
| 20260509003103 | 20 | 162 | 6.4 | 19.3 | 0.00 | 0.00 | 0.00 | 68 | 1010.0 |
| 20260509002552 | 21 | 147 | 9.7 | 19.3 | 0.00 | 0.00 | 0.00 | 67 | 1010.0 |
| 20260509002058 | 21 | 144 | 9.7 | 19.3 | 0.00 | 0.00 | 0.00 | 67 | 1010.1 |
| 20260509001553 | 21 | 150 | 9.7 | 22.5 | 0.00 | 0.00 | 0.00 | 66 | 1010.1 |
| 20260509001052 | 21 | 167 | 8.0 | 22.5 | 0.00 | 0.00 | 0.00 | 65 | 1010.0 |
| 20260509000559 | 21 | 143 | 6.4 | 17.7 | 0.00 | 0.00 | 0.00 | 65 | 1010.1 |
| 20260509000104 | 21 | 163 | 9.7 | 19.3 | 0.00 | 0.00 | 0.00 | 64 | 1010.1 |
| 20260508235555 | 21 | 162 | 6.4 | 20.9 | 0.00 | 0.00 | 0.00 | 63 | 1010.3 |
| 20260508235055 | 21 | 154 | 4.8 | 22.5 | 0.00 | 0.00 | 0.00 | 63 | 1010.2 |
| 20260508234558 | 22 | 136 | 8.0 | 22.5 | 0.00 | 0.00 | 0.00 | 63 | 1010.3 |
| 20260508234053 | 22 | 152 | 14.5 | 22.5 | 0.00 | 0.00 | 0.00 | 63 | 1010.4 |
| 20260508233556 | 22 | 155 | 11.3 | 27.4 | 0.00 | 0.00 | 0.00 | 62 | 1010.3 |
| 20260508233054 | 22 | 167 | 12.9 | 27.4 | 0.00 | 0.00 | 0.00 | 62 | 1010.2 |
| 20260508232555 | 22 | 174 | 8.0 | 24.1 | 0.00 | 0.00 | 0.00 | 62 | 1010.4 |
| 20260508232055 | 22 | 189 | 11.3 | 24.1 | 0.00 | 0.00 | 0.00 | 61 | 1010.3 |
| 20260508231558 | 22 | 166 | 16.1 | 27.4 | 0.00 | 0.00 | 0.00 | 60 | 1010.2 |
| 20260508231056 | 22 | 162 | 12.9 | 27.4 | 0.00 | 0.00 | 0.00 | 61 | 1010.4 |
| 20260508230557 | 22 | 163 | 16.1 | 24.1 | 0.00 | 0.00 | 0.00 | 60 | 1010.3 |
| 20260508230105 | 22 | 160 | 11.3 | 24.1 | 0.00 | 0.00 | 0.00 | 59 | 1010.4 |
| 20260508225556 | 22 | 245 | 11.3 | 27.4 | 0.00 | 0.00 | 0.00 | 59 | 1010.4 |
| 20260508225052 | 22 | 167 | 17.7 | 27.4 | 0.00 | 0.00 | 0.00 | 58 | 1010.5 |
| 20260508224557 | 22 | 158 | 8.0 | 24.1 | 0.00 | 0.00 | 0.00 | 57 | 1010.4 |
| 20260508224052 | 22 | 155 | 14.5 | 24.1 | 0.00 | 0.00 | 0.00 | 57 | 1010.4 |
| 20260508223552 | 22 | 113 | 14.5 | 24.1 | 0.00 | 0.00 | 0.00 | 56 | 1010.4 |
| 20260508223055 | 22 | 156 | 12.9 | 25.7 | 0.00 | 0.00 | 0.00 | 55 | 1010.3 |
| 20260508222554 | 23 | 166 | 11.3 | 25.7 | 0.00 | 0.00 | 0.00 | 55 | 1010.4 |
| 20260508222051 | 22 | 138 | 12.9 | 29.0 | 0.00 | 0.00 | 0.00 | 55 | 1010.4 |
| 20260508221559 | 23 | 143 | 12.9 | 29.0 | 0.00 | 0.00 | 0.00 | 56 | 1010.4 |
| 20260508221052 | 23 | 198 | 11.3 | 29.0 | 0.00 | 0.00 | 0.00 | 54 | 1010.6 |
| 20260508220555 | 23 | 149 | 14.5 | 25.7 | 0.00 | 0.00 | 0.00 | 53 | 1010.5 |
| 20260508220055 | 23 | 160 | 16.1 | 25.7 | 0.00 | 0.00 | 0.00 | 52 | 1010.4 |
| 20260508215552 | 23 | 176 | 11.3 | 25.7 | 0.00 | 0.00 | 0.00 | 53 | 1010.4 |
| 20260508215056 | 23 | 150 | 9.7 | 27.4 | 0.00 | 0.00 | 0.00 | 53 | 1010.4 |
| 20260508214611 | 23 | 139 | 8.0 | 27.4 | 0.00 | 0.00 | 0.00 | 54 | 1010.5 |
| 20260508214055 | 22 | 0 | 8.0 | 29.0 | 0.00 | 0.00 | 0.00 | 53 | 1010.5 |
| 20260508213555 | 22 | 169 | 11.3 | 29.0 | 0.00 | 0.00 | 0.00 | 52 | 1010.5 |
| 20260508213058 | 22 | 189 | 6.4 | 30.6 | 0.00 | 0.00 | 0.00 | 52 | 1010.7 |
| 20260508212554 | 22 | 172 | 17.7 | 30.6 | 0.00 | 0.00 | 0.00 | 51 | 1010.9 |
| 20260508212054 | 22 | 150 | 19.3 | 30.6 | 0.00 | 0.00 | 0.00 | 53 | 1010.8 |
| 20260508211558 | 23 | 142 | 14.5 | 29.0 | 0.00 | 0.00 | 0.00 | 52 | 1010.8 |
| 20260508211056 | 23 | 166 | 14.5 | 30.6 | 0.00 | 0.00 | 0.00 | 53 | 1011.0 |
| 20260508210556 | 23 | 139 | 9.7 | 30.6 | 0.00 | 0.00 | 0.00 | 52 | 1011.0 |
| 20260508210054 | 23 | 157 | 24.1 | 30.6 | 0.00 | 0.00 | 0.00 | 52 | 1011.2 |
| 20260508205555 | 23 | 163 | 19.3 | 29.0 | 0.00 | 0.00 | 0.00 | 52 | 1011.3 |
| 20260508205055 | 23 | 144 | 17.7 | 29.0 | 0.00 | 0.00 | 0.00 | 52 | 1011.1 |
| 20260508204602 | 23 | 130 | 20.9 | 32.2 | 0.00 | 0.00 | 0.00 | 50 | 1011.1 |
| 20260508204056 | 23 | 179 | 14.5 | 32.2 | 0.00 | 0.00 | 0.00 | 50 | 1011.3 |
| 20260508203552 | 23 | 144 | 17.7 | 33.8 | 0.00 | 0.00 | 0.00 | 51 | 1011.3 |
| 20260508203053 | 23 | 172 | 14.5 | 33.8 | 0.00 | 0.00 | 0.00 | 50 | 1011.5 |
| 20260508202555 | 22 | 124 | 22.5 | 33.8 | 0.00 | 0.00 | 0.00 | 51 | 1011.5 |
| 20260508202052 | 23 | 137 | 17.7 | 29.0 | 0.00 | 0.00 | 0.00 | 51 | 1011.5 |
| 20260508201607 | 23 | 129 | 12.9 | 32.2 | 0.00 | 0.00 | 0.00 | 50 | 1011.6 |
| 20260508201052 | 23 | 165 | 9.7 | 32.2 | 0.00 | 0.00 | 0.00 | 50 | 1011.7 |
| 20260508200552 | 23 | 174 | 14.5 | 30.6 | 0.00 | 0.00 | 0.00 | 51 | 1011.7 |
| 20260508200058 | 22 | 141 | 14.5 | 27.4 | 0.00 | 0.00 | 0.00 | 51 | 1011.8 |
| 20260508195551 | 23 | 124 | 16.1 | 32.2 | 0.00 | 0.00 | 0.00 | 49 | 1011.8 |
| 20260508195052 | 23 | 188 | 19.3 | 32.2 | 0.00 | 0.00 | 0.00 | 48 | 1011.8 |
| 20260508194621 | 22 | 174 | 19.3 | 30.6 | 0.00 | 0.00 | 0.00 | 48 | 1011.6 |
| 20260508194051 | 22 | 173 | 9.7 | 25.7 | 0.00 | 0.00 | 0.00 | 50 | 1011.7 |
| 20260508193551 | 22 | 160 | 9.7 | 25.7 | 0.00 | 0.00 | 0.00 | 52 | 1011.8 |
| 20260508193101 | 22 | 143 | 4.8 | 24.1 | 0.00 | 0.00 | 0.00 | 50 | 1011.9 |
| 20260508192555 | 22 | 165 | 6.4 | 25.7 | 0.00 | 0.00 | 0.00 | 50 | 1012.2 |
| 20260508192057 | 22 | 122 | 16.1 | 25.7 | 0.00 | 0.00 | 0.00 | 49 | 1012.2 |
| 20260508191600 | 22 | 0 | 9.7 | 25.7 | 0.00 | 0.00 | 0.00 | 49 | 1012.2 |
| 20260508191055 | 22 | 180 | 11.3 | 25.7 | 0.00 | 0.00 | 0.00 | 50 | 1012.0 |
| 20260508190557 | 22 | 157 | 6.4 | 24.1 | 0.00 | 0.00 | 0.00 | 51 | 1012.1 |
| 20260508190058 | 22 | 122 | 12.9 | 24.1 | 0.00 | 0.00 | 0.00 | 50 | 1012.2 |
| 20260508185552 | 22 | 138 | 4.8 | 24.1 | 0.00 | 0.00 | 0.00 | 53 | 1012.3 |
| 20260508185053 | 22 | 153 | 8.0 | 20.9 | 0.00 | 0.00 | 0.00 | 52 | 1012.2 |
| 20260508184603 | 22 | 171 | 4.8 | 20.9 | 0.00 | 0.00 | 0.00 | 52 | 1012.5 |
| 20260508184055 | 22 | 166 | 8.0 | 22.5 | 0.00 | 0.00 | 0.00 | 50 | 1012.4 |
| 20260508183551 | 22 | 0 | 9.7 | 22.5 | 0.00 | 0.00 | 0.00 | 48 | 1012.4 |
| 20260508183100 | 22 | 172 | 3.2 | 24.1 | 0.00 | 0.00 | 0.00 | 50 | 1012.6 |
| 20260508182559 | 22 | 138 | 9.7 | 29.0 | 0.00 | 0.00 | 0.00 | 49 | 1012.9 |
| 20260508182054 | 22 | 141 | 14.5 | 29.0 | 0.00 | 0.00 | 0.00 | 49 | 1012.9 |
| 20260508181632 | 22 | 174 | 8.0 | 25.7 | 0.00 | 0.00 | 0.00 | 50 | 1013.1 |
| 20260508181055 | 21 | 0 | 9.7 | 19.3 | 0.00 | 0.00 | 0.00 | 52 | 1013.2 |
| 20260508180559 | 21 | 0 | 1.6 | 24.1 | 0.00 | 0.00 | 0.00 | 51 | 1013.3 |
| 20260508175555 | 22 | 141 | 4.8 | 22.5 | 0.00 | 0.00 | 0.00 | 51 | 1013.2 |
| 20260508175057 | 22 | 181 | 8.0 | 22.5 | 0.00 | 0.00 | 0.00 | 49 | 1013.4 |
| 20260508174603 | 21 | 0 | 1.6 | 25.7 | 0.00 | 0.00 | 0.00 | 51 | 1013.5 |
| 20260508174056 | 21 | 113 | 6.4 | 25.7 | 0.00 | 0.00 | 0.00 | 49 | 1013.5 |
| 20260508173556 | 21 | 140 | 11.3 | 22.5 | 0.00 | 0.00 | 0.00 | 48 | 1013.4 |
| 20260508173057 | 21 | 155 | 6.4 | 19.3 | 0.00 | 0.00 | 0.00 | 52 | 1013.8 |
| 20260508172555 | 21 | 186 | 3.2 | 16.1 | 0.00 | 0.00 | 0.00 | 51 | 1014.1 |
| 20260508172056 | 21 | 0 | 4.8 | 17.7 | 0.00 | 0.00 | 0.00 | 50 | 1014.2 |
| 20260508171556 | 21 | 138 | 3.2 | 17.7 | 0.00 | 0.00 | 0.00 | 52 | 1014.1 |
| 20260508171055 | 21 | 133 | 8.0 | 17.7 | 0.00 | 0.00 | 0.00 | 53 | 1014.2 |
| 20260508170555 | 21 | 147 | 3.2 | 20.9 | 0.00 | 0.00 | 0.00 | 52 | 1014.4 |
| 20260508170054 | 20 | 133 | 4.8 | 20.9 | 0.00 | 0.00 | 0.00 | 52 | 1014.4 |
| 20260508165555 | 20 | 141 | 4.8 | 20.9 | 0.00 | 0.00 | 0.00 | 53 | 1014.4 |
| 20260508165055 | 21 | 127 | 6.4 | 20.9 | 0.00 | 0.00 | 0.00 | 53 | 1014.6 |
| 20260508164554 | 21 | 138 | 12.9 | 20.9 | 0.00 | 0.00 | 0.00 | 49 | 1014.9 |
| 20260508164052 | 21 | 0 | 8.0 | 19.3 | 0.00 | 0.00 | 0.00 | 51 | 1015.2 |
| 20260508163555 | 21 | 169 | 0.0 | 19.3 | 0.00 | 0.00 | 0.00 | 53 | 1015.2 |
| 20260508163100 | 21 | 125 | 9.7 | 20.9 | 0.00 | 0.00 | 0.00 | 51 | 1015.3 |
| 20260508162557 | 21 | 135 | 11.3 | 20.9 | 0.00 | 0.00 | 0.00 | 50 | 1015.3 |
| 20260508162055 | 21 | 0 | 1.6 | 19.3 | 0.00 | 0.00 | 0.00 | 51 | 1015.4 |
| 20260508161605 | 21 | 0 | 3.2 | 19.3 | 0.00 | 0.00 | 0.00 | 51 | 1015.3 |
| 20260508161055 | 21 | 167 | 3.2 | 17.7 | 0.00 | 0.00 | 0.00 | 53 | 1015.2 |
| 20260508160554 | 20 | 0 | 8.0 | 19.3 | 0.00 | 0.00 | 0.00 | 53 | 1015.1 |
| 20260508160058 | 20 | 0 | 4.8 | 19.3 | 0.00 | 0.00 | 0.00 | 53 | 1015.1 |
| 20260508155557 | 20 | 118 | 0.0 | 17.7 | 0.00 | 0.00 | 0.00 | 55 | 1015.1 |
| 20260508155056 | 20 | 131 | 6.4 | 17.7 | 0.00 | 0.00 | 0.00 | 53 | 1014.9 |
| 20260508154558 | 20 | 135 | 8.0 | 20.9 | 0.00 | 0.00 | 0.00 | 52 | 1015.0 |
| 20260508154051 | 20 | 141 | 8.0 | 20.9 | 0.00 | 0.00 | 0.00 | 53 | 1015.3 |
| 20260508153555 | 20 | 0 | 4.8 | 22.5 | 0.00 | 0.00 | 0.00 | 54 | 1015.2 |
| 20260508153056 | 20 | 98 | 12.9 | 22.5 | 0.00 | 0.00 | 0.00 | 52 | 1015.1 |
| 20260508152555 | 19 | 124 | 11.3 | 24.1 | 0.00 | 0.00 | 0.00 | 52 | 1015.1 |
| 20260508152055 | 19 | 122 | 12.9 | 24.1 | 0.00 | 0.00 | 0.00 | 54 | 1015.0 |
| 20260508151605 | 19 | 120 | 17.7 | 24.1 | 0.00 | 0.00 | 0.00 | 53 | 1015.2 |
| 20260508151055 | 19 | 125 | 12.9 | 22.5 | 0.00 | 0.00 | 0.00 | 54 | 1015.1 |
| 20260508150554 | 19 | 123 | 12.9 | 22.5 | 0.00 | 0.00 | 0.00 | 58 | 1015.1 |
| 20260508150054 | 18 | 116 | 11.3 | 22.5 | 0.00 | 0.00 | 0.00 | 59 | 1015.1 |
| 20260508145552 | 18 | 117 | 16.1 | 22.5 | 0.00 | 0.00 | 0.00 | 59 | 1015.3 |
| 20260508145054 | 18 | 120 | 16.1 | 20.9 | 0.00 | 0.00 | 0.00 | 61 | 1015.2 |
| 20260508144553 | 18 | 95 | 11.3 | 22.5 | 0.00 | 0.00 | 0.00 | 61 | 1015.2 |
| 20260508144052 | 18 | 113 | 11.3 | 22.5 | 0.00 | 0.00 | 0.00 | 62 | 1015.2 |
| 20260508143553 | 18 | 122 | 8.0 | 22.5 | 0.00 | 0.00 | 0.00 | 63 | 1015.3 |
| 20260508143055 | 17 | 117 | 9.7 | 17.7 | 0.00 | 0.00 | 0.00 | 67 | 1015.3 |
| 20260508142552 | 17 | 0 | 9.7 | 17.7 | 0.00 | 0.00 | 0.00 | 65 | 1015.5 |
| 20260508142051 | 17 | 0 | 9.7 | 19.3 | 0.00 | 0.00 | 0.00 | 65 | 1015.7 |
| 20260508141600 | 17 | 129 | 16.1 | 20.9 | 0.00 | 0.00 | 0.00 | 66 | 1015.9 |
| 20260508141052 | 17 | 117 | 12.9 | 20.9 | 0.00 | 0.00 | 0.00 | 65 | 1015.8 |
| 20260508140557 | 17 | 110 | 8.0 | 17.7 | 0.00 | 0.00 | 0.00 | 68 | 1016.0 |
| 20260508140054 | 17 | 117 | 11.3 | 16.1 | 0.00 | 0.00 | 0.00 | 67 | 1016.3 |
| 20260508135555 | 16 | 122 | 9.7 | 16.1 | 0.00 | 0.00 | 0.00 | 69 | 1016.2 |
| 20260508135052 | 16 | 124 | 11.3 | 16.1 | 0.00 | 0.00 | 0.00 | 70 | 1016.1 |
| 20260508134559 | 16 | 110 | 9.7 | 16.1 | 0.00 | 0.00 | 0.00 | 70 | 1016.1 |
| 20260508134059 | 16 | 0 | 0.0 | 16.1 | 0.00 | 0.00 | 0.00 | 72 | 1016.2 |
| 20260508133555 | 16 | 0 | 9.7 | 16.1 | 0.00 | 0.00 | 0.00 | 72 | 1016.2 |
| 20260508133105 | 16 | 123 | 1.6 | 16.1 | 0.00 | 0.00 | 0.00 | 74 | 1016.2 |
| 20260508132554 | 16 | 0 | 8.0 | 16.1 | 0.00 | 0.00 | 0.00 | 73 | 1016.3 |
| 20260508132055 | 16 | 120 | 9.7 | 14.5 | 0.00 | 0.00 | 0.00 | 73 | 1016.2 |
| 20260508131607 | 15 | 101 | 8.0 | 11.3 | 0.00 | 0.00 | 0.00 | 76 | 1016.3 |
| 20260508131052 | 15 | 109 | 8.0 | 11.3 | 0.00 | 0.00 | 0.00 | 76 | 1016.2 |
| 20260508130551 | 15 | 107 | 6.4 | 11.3 | 0.00 | 0.00 | 0.00 | 78 | 1016.4 |
| 20260508125555 | 14 | 70 | 8.0 | 12.9 | 0.00 | 0.00 | 0.00 | 79 | 1016.2 |
| 20260508125051 | 14 | 96 | 8.0 | 12.9 | 0.00 | 0.00 | 0.00 | 79 | 1016.0 |
| 20260508124558 | 14 | 76 | 0.0 | 0.0 | 0.00 | 0.00 | 0.00 | 81 | 1016.1 |
| 20260508124055 | 14 | 0 | 0.0 | 0.0 | 0.00 | 0.00 | 0.00 | 81 | 1016.2 |
| 20260508123555 | 13 | 0 | 0.0 | 0.0 | 0.00 | 0.00 | 0.00 | 82 | 1016.1 |
| 20260508123106 | 13 | 0 | 0.0 | 6.4 | 0.00 | 0.00 | 0.00 | 84 | 1016.1 |
| 20260508122555 | 13 | 0 | 0.0 | 6.4 | 0.00 | 0.00 | 0.00 | 84 | 1016.1 |
| 20260508122056 | 13 | 60 | 1.6 | 6.4 | 0.00 | 0.00 | 0.00 | 84 | 1016.3 |
| 20260508121557 | 12 | 0 | 0.0 | 6.4 | 0.00 | 0.00 | 0.00 | 84 | 1016.0 |
| 20260508121054 | 12 | 0 | 0.0 | 6.4 | 0.00 | 0.00 | 0.00 | 84 | 1016.0 |
| 20260508120554 | 12 | 81 | 0.0 | 6.4 | 0.00 | 0.00 | 0.00 | 82 | 1016.0 |
| 20260508120057 | 11 | 0 | 1.6 | 6.4 | 0.00 | 0.00 | 0.00 | 80 | 1016.1 |
| 20260508115552 | 11 | 0 | 3.2 | 6.4 | 0.00 | 0.00 | 0.00 | 77 | 1015.9 |
| 20260508115055 | 11 | 0 | 0.0 | 0.0 | 0.00 | 0.00 | 0.00 | 71 | 1016.0 |
| 20260508114558 | 11 | 0 | 0.0 | 0.0 | 0.00 | 0.00 | 0.00 | 68 | 1015.9 |
| 20260508114051 | 10 | 0 | 0.0 | 0.0 | 0.00 | 0.00 | 0.00 | 67 | 1015.8 |
| 20260508113555 | 10 | 0 | 0.0 | 0.0 | 0.00 | 0.00 | 0.00 | 63 | 1015.7 |
| 20260508113056 | 10 | 0 | 0.0 | 0.0 | 0.00 | 0.00 | 0.00 | 62 | 1015.7 |
| 20260508112551 | 10 | 0 | 0.0 | 0.0 | 0.00 | 0.00 | 0.00 | 63 | 1015.7 |
| 20260508112051 | 10 | 0 | 0.0 | 0.0 | 0.00 | 0.00 | 0.00 | 63 | 1015.7 |
| 20260508111606 | 10 | 0 | 0.0 | 0.0 | 0.00 | 0.00 | 0.00 | 64 | 1015.8 |
| 20260508111055 | 10 | 0 | 0.0 | 0.0 | 0.00 | 0.00 | 0.00 | 66 | 1015.7 |
| 20260508110554 | 10 | 0 | 0.0 | 0.0 | 0.00 | 0.00 | 0.00 | 69 | 1015.7 |
| 20260508105555 | 10 | 0 | 0.0 | 0.0 | 0.00 | 0.00 | 0.00 | 71 | 1015.5 |
| 20260508105055 | 10 | 0 | 0.0 | 0.0 | 0.00 | 0.00 | 0.00 | 70 | 1015.5 |
| 20260508104557 | 10 | 0 | 0.0 | 0.0 | 0.00 | 0.00 | 0.00 | 69 | 1015.5 |
| 20260508104055 | 10 | 0 | 0.0 | 0.0 | 0.00 | 0.00 | 0.00 | 69 | 1015.7 |